EW7906 Weather Reports


time (UTC)temp
C
wind
direction
speed
KPH
gust
KPH
rain 1hr
cm
rain 24hr
cm
rain mn
cm
humidity
%
barometer
mb
20260504081743 30 156 1.6 11.3 0.00 0.00 0.00 100 1014.3
20260504081242 30 126 0.0 11.3 0.00 0.00 0.00 100 1014.3
20260504080742 30 165 4.8 8.0 0.00 0.00 0.00 100 1014.5
20260504080515 30 94 0.0 9.7 0.00 0.00 0.00 100 1014.5
20260504050429 31 164 0.0 12.9 0.00 0.00 0.00 100 1016.6
20260504045930 31 180 6.4 12.9 0.00 0.00 0.00 100 1016.5
20260504045428 31 194 0.0 9.7 0.00 0.00 0.00 100 1016.5
20260504044928 31 135 0.0 17.7 0.00 0.00 0.00 100 1016.6
20260504044655 31 99 6.4 17.7 0.00 0.00 0.00 100 1016.7
20260504043924 31 157 6.4 11.3 0.00 0.00 0.00 100 1016.6
20260504043423 31 92 0.0 9.7 0.00 0.00 0.00 100 1016.7
20260504042922 31 125 0.0 11.3 0.00 0.00 0.00 100 1016.8
20260504042411 32 125 0.0 11.3 0.00 0.00 0.00 100 1016.8
20260504041904 32 147 3.2 8.0 0.00 0.00 0.00 100 1016.8
20260504041358 31 172 0.0 0.0 0.00 0.00 0.00 100 1016.9
20260504040849 32 172 0.0 0.0 0.00 0.00 0.00 100 1016.9
20260504040344 32 172 0.0 6.4 0.00 0.00 0.00 100 1016.9
20260504035835 32 172 0.0 6.4 0.00 0.00 0.00 100 1016.9
20260504035328 31 135 0.0 8.0 0.00 0.00 0.00 100 1016.9
20260504034824 31 135 0.0 8.0 0.00 0.00 0.00 100 1016.9
20260504034549 30 129 0.0 0.0 0.00 0.00 0.00 100 1016.8
20260504033816 30 129 0.0 0.0 0.00 0.00 0.00 100 1016.8
20260504033802 30 129 0.0 0.0 0.00 0.00 0.00 100 1016.7
20260504032744 30 129 0.0 0.0 0.00 0.00 0.00 100 1016.7
20260504032220 30 129 0.0 0.0 0.00 0.00 0.00 100 1016.7
20260504031657 30 129 0.0 0.0 0.00 0.00 0.00 100 1016.7
20260504031137 30 129 0.0 0.0 0.00 0.00 0.00 100 1016.7
20260504030613 31 129 0.0 0.0 0.00 0.00 0.00 100 1016.9
20260504030340 31 129 0.0 0.0 0.00 0.00 0.00 100 1016.9
20260504025556 31 129 0.0 0.0 0.00 0.00 0.00 100 1016.8
20260504025053 31 129 0.0 0.0 0.00 0.00 0.00 100 1016.7
20260504024533 31 129 0.0 0.0 0.00 0.00 0.00 100 1016.9
20260504024025 31 129 0.0 0.0 0.00 0.00 0.00 100 1016.8
20260504023513 31 129 0.0 0.0 0.00 0.00 0.00 100 1016.8
20260504023012 31 129 0.0 0.0 0.00 0.00 0.00 100 1016.7
20260504022502 32 129 0.0 0.0 0.00 0.00 0.00 100 1016.7
20260504021954 32 129 0.0 0.0 0.00 0.00 0.00 100 1016.6
20260504021432 32 129 0.0 0.0 0.00 0.00 0.00 100 1016.8
20260504021200 32 129 0.0 0.0 0.00 0.00 0.00 100 1016.8
20260504020429 32 129 0.0 0.0 0.00 0.00 0.00 100 1016.7
20260504015928 32 129 0.0 0.0 0.00 0.00 0.00 100 1016.7
20260504015425 32 129 0.0 0.0 0.00 0.00 0.00 100 1016.5
20260504014916 33 129 0.0 0.0 0.00 0.00 0.00 100 1016.4
20260504014412 32 129 0.0 0.0 0.00 0.00 0.00 100 1016.3
20260504013909 33 129 0.0 0.0 0.00 0.00 0.00 100 1016.2
20260504013638 32 129 0.0 0.0 0.00 0.00 0.00 100 1016.2
20260504012903 33 129 0.0 0.0 0.00 0.00 0.00 100 1016.1
20260504012359 33 129 0.0 0.0 0.00 0.00 0.00 100 1016.2
20260504011835 33 129 0.0 0.0 0.00 0.00 0.00 100 1016.2
20260504011312 33 129 0.0 0.0 0.00 0.00 0.00 100 1016.2
20260504010807 33 129 0.0 0.0 0.00 0.00 0.00 100 1016.2
20260504010258 33 129 0.0 0.0 0.00 0.00 0.00 100 1016.2
20260504005752 33 129 0.0 0.0 0.00 0.00 0.00 100 1016.3
20260504005250 34 129 0.0 0.0 0.00 0.00 0.00 100 1016.2
20260504004717 34 129 0.0 0.0 0.00 0.00 0.00 100 1016.2
20260504004439 34 129 0.0 1.6 0.00 0.00 0.00 100 1016.2
20260504003658 34 129 0.0 9.7 0.00 0.00 0.00 100 1016.2
20260504003147 34 129 1.6 9.7 0.00 0.00 0.00 100 1016.2
20260504002644 35 143 0.0 11.3 0.00 0.00 0.00 100 1016.3
20260504002129 35 143 0.0 11.3 0.00 0.00 0.00 100 1016.4
20260504001626 35 163 0.0 8.0 0.00 0.00 0.00 100 1016.4
20260504001126 35 174 0.0 11.3 0.00 0.00 0.00 100 1016.6
20260504000625 35 137 1.6 11.3 0.00 0.00 0.00 100 1016.5
20260504000119 35 112 0.0 8.0 0.00 0.00 0.00 100 1016.7
20260503235613 35 137 0.0 9.7 0.00 0.00 0.00 100 1016.7
20260503235114 35 129 0.0 14.5 0.00 0.00 0.00 100 1016.7
20260503234602 35 127 0.0 14.5 0.00 0.00 0.00 100 1016.8
20260503234101 35 180 6.4 14.5 0.00 0.00 0.00 100 1016.7
20260503233600 35 140 6.4 14.5 0.00 0.00 0.00 100 1016.8
20260503233100 35 153 1.6 11.3 0.00 0.00 0.00 100 1016.8
20260503232559 35 139 0.0 11.3 0.00 0.00 0.00 100 1016.8
20260503232320 35 139 0.0 11.3 0.00 0.00 0.00 100 1016.9
20260503231814 35 154 3.2 11.3 0.00 0.00 0.00 100 1016.8
20260503231043 35 151 3.2 14.5 0.00 0.00 0.00 100 1016.8
20260503230543 35 198 0.0 14.5 0.00 0.00 0.00 100 1016.7
20260503230314 35 150 8.0 16.1 0.00 0.00 0.00 100 1016.6
20260503225544 35 146 8.0 17.7 0.00 0.00 0.00 100 1016.6
20260503225043 35 118 8.0 17.7 0.00 0.00 0.00 100 1016.7
20260503224543 36 130 1.6 14.5 0.00 0.00 0.00 100 1016.7
20260503224043 35 163 9.7 16.1 0.00 0.00 0.00 100 1016.8
20260503223544 36 129 3.2 16.1 0.00 0.00 0.00 100 1016.8
20260503223043 36 125 8.0 16.1 0.00 0.00 0.00 100 1017.0
20260503222543 36 157 3.2 16.1 0.00 0.00 0.00 100 1017.1
20260503222042 36 135 0.0 14.5 0.00 0.00 0.00 100 1017.0
20260503221546 36 144 6.4 16.1 0.00 0.00 0.00 100 1017.3
20260503221543 36 105 0.0 14.5 0.00 0.00 0.00 100 1017.1
20260503220542 36 157 6.4 16.1 0.00 0.00 0.00 100 1017.3
20260503220044 36 129 0.0 14.5 0.00 0.00 0.00 100 1017.5
20260503215535 36 154 8.0 19.3 0.00 0.00 0.00 100 1017.6
20260503215036 36 146 6.4 25.7 0.00 0.00 0.00 100 1017.6
20260503214535 36 154 4.8 25.7 0.00 0.00 0.00 100 1017.6
20260503214306 36 142 6.4 17.7 0.00 0.00 0.00 100 1017.7
20260503213535 36 78 0.0 17.7 0.00 0.00 0.00 100 1017.8
20260503213257 36 133 6.4 12.9 0.00 0.00 0.00 100 1018.0
20260503212744 36 156 3.2 16.1 0.00 0.00 0.00 100 1018.0
20260503212013 36 108 3.2 17.7 0.00 0.00 0.00 100 1018.0
20260503211502 36 120 8.0 17.7 0.00 0.00 0.00 100 1018.1
20260503211002 36 153 8.0 16.1 0.00 0.00 0.00 100 1018.3
20260503210733 36 135 6.4 16.1 0.00 0.00 0.00 100 1018.5
20260503210002 36 132 0.0 16.1 0.00 0.00 0.00 100 1018.6
20260503205457 36 160 8.0 16.1 0.00 0.00 0.00 100 1018.8
20260503204957 37 158 8.0 14.5 0.00 0.00 0.00 100 1018.9
20260503204456 37 150 6.4 16.1 0.00 0.00 0.00 100 1018.9
20260503203956 36 189 9.7 16.1 0.00 0.00 0.00 100 1018.9
20260503203457 36 142 8.0 16.1 0.00 0.00 0.00 100 1019.1
20260503203227 36 127 6.4 16.1 0.00 0.00 0.00 100 1019.2
20260503202457 36 156 3.2 16.1 0.00 0.00 0.00 100 1019.2
20260503201956 37 178 8.0 16.1 0.00 0.00 0.00 100 1019.4
20260503201725 36 104 3.2 16.1 0.00 0.00 0.00 100 1019.4
20260503200953 36 156 3.2 20.9 0.00 0.00 0.00 100 1019.5
20260503200453 36 146 9.7 20.9 0.00 0.00 0.00 100 1019.6
20260503195953 37 154 0.0 16.1 0.00 0.00 0.00 100 1019.5
20260503195452 36 157 9.7 16.1 0.00 0.00 0.00 100 1019.8
20260503195223 37 158 6.4 16.1 0.00 0.00 0.00 100 1019.9
20260503194453 37 209 6.4 16.1 0.00 0.00 0.00 100 1020.0
20260503194224 36 164 8.0 14.5 0.00 0.00 0.00 100 1019.9
20260503193453 36 151 9.7 16.1 0.00 0.00 0.00 100 1020.0
20260503192953 36 139 6.4 16.1 0.00 0.00 0.00 100 1020.0
20260503192452 36 106 1.6 14.5 0.00 0.00 0.00 100 1020.1
20260503192222 36 133 8.0 14.5 0.00 0.00 0.00 100 1020.1
20260503191451 36 127 0.0 17.7 0.00 0.00 0.00 100 1020.2
20260503190947 36 150 9.7 17.7 0.00 0.00 0.00 100 1020.3
20260503190446 37 180 0.0 12.9 0.00 0.00 0.00 100 1020.3
20260503190215 36 164 8.0 17.7 0.00 0.00 0.00 100 1020.5
20260503185443 36 171 4.8 17.7 0.00 0.00 0.00 100 1020.6
20260503185215 36 158 8.0 14.5 0.00 0.00 0.00 100 1020.6
20260503184443 36 156 6.4 16.1 0.00 0.00 0.00 100 1020.7
20260503183942 36 127 0.0 16.1 0.00 0.00 0.00 100 1020.8
20260503183444 36 167 6.4 16.1 0.00 0.00 0.00 100 1020.9
20260503182942 35 164 11.3 16.1 0.00 0.00 0.00 100 1021.1
20260503182443 36 140 1.6 14.5 0.00 0.00 0.00 100 1021.2
20260503181943 36 143 8.0 14.5 0.00 0.00 0.00 100 1021.1
20260503181443 36 119 4.8 17.7 0.00 0.00 0.00 100 1021.2
20260503180943 36 94 6.4 17.7 0.00 0.00 0.00 100 1021.4
20260503180443 36 135 4.8 14.5 0.00 0.00 0.00 100 1021.7
20260503180212 36 196 6.4 16.1 0.00 0.00 0.00 100 1021.8
20260503175439 36 143 8.0 16.1 0.00 0.00 0.00 100 1021.8
20260503174923 36 195 1.6 12.9 0.00 0.00 0.00 100 1021.9
20260503174416 36 139 1.6 19.3 0.00 0.00 0.00 100 1022.0
20260503174144 36 150 6.4 19.3 0.00 0.00 0.00 100 1022.1
20260503173407 36 178 4.8 12.9 0.00 0.00 0.00 100 1022.0
20260503173116 36 150 6.4 16.1 0.00 0.00 0.00 100 1022.1
20260503172345 36 111 0.0 16.1 0.00 0.00 0.00 100 1022.1
20260503171839 36 150 8.0 14.5 0.00 0.00 0.00 100 1022.2
20260503171339 36 143 3.2 14.5 0.00 0.00 0.00 100 1022.2
20260503170840 36 132 3.2 16.1 0.00 0.00 0.00 100 1022.4
20260503170609 36 208 8.0 19.3 0.00 0.00 0.00 100 1022.5
20260503150739 34 202 0.0 0.0 0.00 0.00 0.00 100 1023.1
20260503150501 33 202 0.0 3.2 0.00 0.00 0.00 100 1023.1
20260503140129 30 191 0.0 6.4 0.00 0.00 0.00 100 1022.7
20260503131044 28 244 1.6 4.8 0.00 0.00 0.00 100 1022.4
20260503130539 28 49 0.0 0.0 0.00 0.00 0.00 100 1022.4
20260503120129 26 49 0.0 0.0 0.00 0.00 0.00 100 1021.9
20260503110811 26 49 0.0 0.0 0.00 0.00 0.00 100 1021.5
20260503110307 26 49 0.0 0.0 0.00 0.00 0.00 100 1021.4
20260503100106 26 49 0.0 0.0 0.00 0.00 0.00 100 1020.7